contact:dominique.lefevre@mio.osupytheas.fr, maurice.libes@osupytheas.fr, didier.mallarino@osupytheas.fr
Project:EMSO http://www.emso-fr.org/EMSO-France
Depth: 2436.0 m
Title:EMSO Ligure Ouest : Data MII capteur CSTAR
DateTime,Latitude,Longitude,Instrument_Serial,Reference_Counts,Signal_Counts,Corrected_Signal_raw_counts,Calculated_Beam_c_inverse_meters,Internal_thermistor_counts
DateTime,Latitude,Longitude,Instrument_Serial,Reference_Counts,Signal_Counts,Corrected_Signal_raw_counts,Calculated_Beam_c_inverse_meters,Internal_thermistor_counts
2017-11-13T00:01:36,42.805,6.029,CST-1368DR,11148,15219,15444,0.044,551
2017-11-13T00:04:41,42.805,6.029,CST-1368DR,11148,15218,15443,0.045,551
2017-11-13T00:07:45,42.805,6.029,CST-1368DR,11148,15220,15445,0.044,551
2017-11-13T00:10:50,42.805,6.029,CST-1368DR,11148,15218,15442,0.045,550
2017-11-13T00:13:55,42.805,6.029,CST-1368DR,11148,15219,15443,0.045,551
2017-11-13T00:17:00,42.805,6.029,CST-1368DR,11148,15218,15442,0.045,550
2017-11-13T00:20:05,42.805,6.029,CST-1368DR,11148,15220,15445,0.044,551
2017-11-13T00:23:10,42.805,6.029,CST-1368DR,11148,15220,15444,0.044,551
2017-11-13T00:26:15,42.805,6.029,CST-1368DR,11148,15220,15444,0.044,550
2017-11-13T00:29:20,42.805,6.029,CST-1368DR,11148,15220,15445,0.044,551
2017-11-13T00:32:25,42.805,6.029,CST-1368DR,11148,15220,15444,0.044,551
2017-11-13T00:35:29,42.805,6.029,CST-1368DR,11148,15217,15442,0.045,551
2017-11-13T00:38:34,42.805,6.029,CST-1368DR,11148,15218,15443,0.045,551
2017-11-13T00:41:39,42.805,6.029,CST-1368DR,11148,15219,15444,0.044,551
2017-11-13T00:44:44,42.805,6.029,CST-1368DR,11148,15220,15444,0.044,551
2017-11-13T00:47:49,42.805,6.029,CST-1368DR,11148,15216,15441,0.045,550
2017-11-13T00:50:54,42.805,6.029,CST-1368DR,11148,15220,15444,0.044,551
2017-11-13T00:53:59,42.805,6.029,CST-1368DR,11148,15218,15442,0.045,551
2017-11-13T00:57:04,42.805,6.029,CST-1368DR,11148,15220,15444,0.044,551
2017-11-13T01:00:09,42.805,6.029,CST-1368DR,11148,15221,15446,0.044,551
2017-11-13T01:03:14,42.805,6.029,CST-1368DR,11148,15219,15443,0.045,551
2017-11-13T01:06:18,42.805,6.029,CST-1368DR,11148,15221,15446,0.044,551
2017-11-13T01:09:23,42.805,6.029,CST-1368DR,11148,15218,15443,0.045,551
2017-11-13T01:12:28,42.805,6.029,CST-1368DR,11148,15219,15444,0.044,551
2017-11-13T01:15:33,42.805,6.029,CST-1368DR,11148,15222,15446,0.044,550
2017-11-13T01:18:38,42.805,6.029,CST-1368DR,11148,15222,15446,0.044,551
2017-11-13T01:21:43,42.805,6.029,CST-1368DR,11148,15219,15444,0.044,551
2017-11-13T01:24:48,42.805,6.029,CST-1368DR,11148,15222,15447,0.044,551
2017-11-13T01:27:53,42.805,6.029,CST-1368DR,11148,15221,15446,0.044,551
2017-11-13T01:30:58,42.805,6.029,CST-1368DR,11148,15220,15445,0.044,551
2017-11-13T01:34:02,42.805,6.029,CST-1368DR,11148,15221,15446,0.044,551
2017-11-13T01:37:07,42.805,6.029,CST-1368DR,11148,15219,15443,0.045,551
2017-11-13T01:40:12,42.805,6.029,CST-1368DR,11148,15222,15446,0.044,551
2017-11-13T01:43:17,42.805,6.029,CST-1368DR,11148,15217,15441,0.045,551
2017-11-13T01:46:22,42.805,6.029,CST-1368DR,11148,15220,15444,0.044,551
2017-11-13T01:49:27,42.805,6.029,CST-1368DR,11148,15220,15445,0.044,551
2017-11-13T01:52:32,42.805,6.029,CST-1368DR,11148,15209,15433,0.047,551
2017-11-13T01:55:37,42.805,6.029,CST-1368DR,11148,15219,15443,0.045,551
2017-11-13T01:58:42,42.805,6.029,CST-1368DR,11148,15221,15445,0.044,551
2017-11-13T02:01:46,42.805,6.029,CST-1368DR,11148,15220,15445,0.044,550
2017-11-13T02:04:51,42.805,6.029,CST-1368DR,11148,15217,15441,0.045,551
2017-11-13T02:07:56,42.805,6.029,CST-1368DR,11148,15221,15446,0.044,551
2017-11-13T02:11:01,42.805,6.029,CST-1368DR,11148,15221,15446,0.044,551
2017-11-13T02:14:06,42.805,6.029,CST-1368DR,11148,15222,15446,0.044,551
2017-11-13T02:17:11,42.805,6.029,CST-1368DR,11148,15222,15446,0.044,551
2017-11-13T02:20:16,42.805,6.029,CST-1368DR,11148,15220,15444,0.044,550
2017-11-13T02:23:21,42.805,6.029,CST-1368DR,11148,15223,15447,0.044,551
2017-11-13T02:26:26,42.805,6.029,CST-1368DR,11148,15221,15446,0.044,551
2017-11-13T02:29:30,42.805,6.029,CST-1368DR,11148,15220,15444,0.044,551
2017-11-13T02:32:35,42.805,6.029,CST-1368DR,11148,15221,15446,0.044,550
2017-11-13T02:35:40,42.805,6.029,CST-1368DR,11148,15217,15441,0.045,551
2017-11-13T02:38:45,42.805,6.029,CST-1368DR,11148,15219,15443,0.045,551
2017-11-13T02:41:50,42.805,6.029,CST-1368DR,11148,15217,15442,0.045,550
2017-11-13T02:44:55,42.805,6.029,CST-1368DR,11148,15222,15446,0.044,551
2017-11-13T02:48:00,42.805,6.029,CST-1368DR,11148,15219,15443,0.045,551
2017-11-13T02:51:05,42.805,6.029,CST-1368DR,11148,15222,15446,0.044,551
2017-11-13T02:54:10,42.805,6.029,CST-1368DR,11148,15222,15446,0.044,551
2017-11-13T02:57:14,42.805,6.029,CST-1368DR,11148,15221,15446,0.044,551
2017-11-13T03:00:19,42.805,6.029,CST-1368DR,11148,15221,15446,0.044,551
2017-11-13T03:03:24,42.805,6.029,CST-1368DR,11148,15219,15443,0.045,551
2017-11-13T03:06:29,42.805,6.029,CST-1368DR,11148,15221,15445,0.044,551
2017-11-13T03:09:34,42.805,6.029,CST-1368DR,11148,15220,15445,0.044,551
2017-11-13T03:12:39,42.805,6.029,CST-1368DR,11148,15223,15447,0.044,551
2017-11-13T03:15:44,42.805,6.029,CST-1368DR,11148,15223,15448,0.043,551
2017-11-13T03:18:49,42.805,6.029,CST-1368DR,11148,15221,15446,0.044,551
2017-11-13T03:21:54,42.805,6.029,CST-1368DR,11148,15223,15448,0.043,551
2017-11-13T03:24:59,42.805,6.029,CST-1368DR,11148,15222,15446,0.044,551
2017-11-13T03:28:03,42.805,6.029,CST-1368DR,11148,15223,15447,0.044,551
2017-11-13T03:31:08,42.805,6.029,CST-1368DR,11148,15222,15446,0.044,551
2017-11-13T03:34:13,42.805,6.029,CST-1368DR,11148,15221,15445,0.044,551
2017-11-13T03:37:18,42.805,6.029,CST-1368DR,11148,15221,15446,0.044,551
2017-11-13T03:40:23,42.805,6.029,CST-1368DR,11148,15223,15448,0.043,551
2017-11-13T03:43:28,42.805,6.029,CST-1368DR,11148,15220,15445,0.044,551
2017-11-13T03:46:33,42.805,6.029,CST-1368DR,11148,15222,15447,0.044,551
2017-11-13T03:49:38,42.805,6.029,CST-1368DR,11148,15221,15446,0.044,551
2017-11-13T03:52:43,42.805,6.029,CST-1368DR,11148,15222,15447,0.044,551
2017-11-13T03:55:47,42.805,6.029,CST-1368DR,11148,15221,15446,0.044,551
2017-11-13T03:58:52,42.805,6.029,CST-1368DR,11148,15222,15446,0.044,551
2017-11-13T04:01:57,42.805,6.029,CST-1368DR,11148,15219,15444,0.044,551
2017-11-13T04:05:02,42.805,6.029,CST-1368DR,11148,15219,15443,0.045,551
2017-11-13T04:08:07,42.805,6.029,CST-1368DR,11147,15221,15447,0.044,551
2017-11-13T04:11:12,42.805,6.029,CST-1368DR,11147,15221,15447,0.044,551
2017-11-13T04:14:17,42.805,6.029,CST-1368DR,11148,15221,15446,0.044,551
2017-11-13T04:17:22,42.805,6.029,CST-1368DR,11148,15221,15446,0.044,551
2017-11-13T04:20:27,42.805,6.029,CST-1368DR,11148,15220,15445,0.044,551
2017-11-13T04:23:31,42.805,6.029,CST-1368DR,11148,15221,15445,0.044,551
2017-11-13T04:26:36,42.805,6.029,CST-1368DR,11148,15220,15445,0.044,551
2017-11-13T04:29:41,42.805,6.029,CST-1368DR,11148,15221,15446,0.044,551
2017-11-13T04:32:46,42.805,6.029,CST-1368DR,11148,15220,15445,0.044,551
2017-11-13T04:35:51,42.805,6.029,CST-1368DR,11148,15220,15445,0.044,551
2017-11-13T04:38:56,42.805,6.029,CST-1368DR,11148,15221,15445,0.044,551
2017-11-13T04:42:01,42.805,6.029,CST-1368DR,11148,15222,15446,0.044,551
2017-11-13T04:45:06,42.805,6.029,CST-1368DR,11148,15220,15445,0.044,551
2017-11-13T04:48:11,42.805,6.029,CST-1368DR,11148,15221,15446,0.044,551
2017-11-13T04:51:16,42.805,6.029,CST-1368DR,11148,15222,15446,0.044,551
2017-11-13T04:54:20,42.805,6.029,CST-1368DR,11147,15220,15445,0.044,551
2017-11-13T04:57:25,42.805,6.029,CST-1368DR,11148,15223,15447,0.044,551
2017-11-13T05:00:30,42.805,6.029,CST-1368DR,11148,15221,15446,0.044,551
2017-11-13T05:03:35,42.805,6.029,CST-1368DR,11148,15222,15446,0.044,551
2017-11-13T05:06:40,42.805,6.029,CST-1368DR,11148,15221,15446,0.044,551
2017-11-13T05:09:45,42.805,6.029,CST-1368DR,11148,15222,15446,0.044,551
2017-11-13T05:12:50,42.805,6.029,CST-1368DR,11148,15222,15446,0.044,551
2017-11-13T05:15:55,42.805,6.029,CST-1368DR,11148,15221,15446,0.044,551
2017-11-13T05:19:00,42.805,6.029,CST-1368DR,11148,15222,15446,0.044,551
2017-11-13T05:22:04,42.805,6.029,CST-1368DR,11148,15222,15446,0.044,551
2017-11-13T05:25:09,42.805,6.029,CST-1368DR,11148,15221,15445,0.044,550
2017-11-13T05:28:14,42.805,6.029,CST-1368DR,11147,15220,15446,0.044,551
2017-11-13T05:31:19,42.805,6.029,CST-1368DR,11148,15220,15444,0.044,551
2017-11-13T05:34:24,42.805,6.029,CST-1368DR,11147,15220,15446,0.044,551
2017-11-13T05:37:29,42.805,6.029,CST-1368DR,11148,15218,15443,0.045,551
2017-11-13T05:40:34,42.805,6.029,CST-1368DR,11147,15218,15444,0.044,551
2017-11-13T05:43:39,42.805,6.029,CST-1368DR,11147,15218,15444,0.044,551
2017-11-13T05:46:44,42.805,6.029,CST-1368DR,11148,15219,15444,0.044,550
2017-11-13T05:49:48,42.805,6.029,CST-1368DR,11148,15222,15446,0.044,551
2017-11-13T05:52:53,42.805,6.029,CST-1368DR,11147,15219,15445,0.044,551
2017-11-13T05:55:58,42.805,6.029,CST-1368DR,11148,15218,15443,0.045,551
2017-11-13T05:59:03,42.805,6.029,CST-1368DR,11148,15221,15446,0.044,551
2017-11-13T06:02:08,42.805,6.029,CST-1368DR,11148,15220,15445,0.044,551
2017-11-13T06:05:13,42.805,6.029,CST-1368DR,11147,15219,15445,0.044,551
2017-11-13T06:08:18,42.805,6.029,CST-1368DR,11147,15219,15445,0.044,551
2017-11-13T06:11:23,42.805,6.029,CST-1368DR,11148,15219,15444,0.044,551
2017-11-13T06:14:28,42.805,6.029,CST-1368DR,11147,15220,15446,0.044,551
2017-11-13T06:17:32,42.805,6.029,CST-1368DR,11148,15220,15444,0.044,551
2017-11-13T06:20:37,42.805,6.029,CST-1368DR,11147,15219,15445,0.044,551
2017-11-13T06:23:42,42.805,6.029,CST-1368DR,11148,15218,15443,0.045,551
2017-11-13T06:26:47,42.805,6.029,CST-1368DR,11147,15218,15444,0.044,551
2017-11-13T06:29:52,42.805,6.029,CST-1368DR,11148,15219,15443,0.045,551
2017-11-13T06:32:57,42.805,6.029,CST-1368DR,11148,15217,15441,0.045,551
2017-11-13T06:36:02,42.805,6.029,CST-1368DR,11148,15218,15443,0.045,551
2017-11-13T06:39:07,42.805,6.029,CST-1368DR,11148,15216,15441,0.045,551
2017-11-13T06:42:12,42.805,6.029,CST-1368DR,11147,15218,15444,0.044,551
2017-11-13T06:45:17,42.805,6.029,CST-1368DR,11148,15221,15446,0.044,551
2017-11-13T06:48:21,42.805,6.029,CST-1368DR,11147,15218,15443,0.045,551
2017-11-13T06:51:26,42.805,6.029,CST-1368DR,11147,15218,15444,0.044,551
2017-11-13T06:54:31,42.805,6.029,CST-1368DR,11147,15217,15442,0.045,551
2017-11-13T06:57:36,42.805,6.029,CST-1368DR,11148,15215,15439,0.046,551
2017-11-13T07:00:41,42.805,6.029,CST-1368DR,11147,15213,15439,0.046,550
2017-11-13T07:03:46,42.805,6.029,CST-1368DR,11147,15216,15442,0.045,551
2017-11-13T07:06:51,42.805,6.029,CST-1368DR,11147,15210,15436,0.046,551
2017-11-13T07:09:56,42.805,6.029,CST-1368DR,11147,15217,15442,0.045,551
2017-11-13T07:13:01,42.805,6.029,CST-1368DR,11147,15216,15441,0.045,551
2017-11-13T07:16:05,42.805,6.029,CST-1368DR,11147,15216,15442,0.045,550
2017-11-13T07:19:10,42.805,6.029,CST-1368DR,11147,15216,15442,0.045,551
2017-11-13T07:22:15,42.805,6.029,CST-1368DR,11147,15212,15438,0.046,551
2017-11-13T07:25:20,42.805,6.029,CST-1368DR,11147,15214,15440,0.045,550
2017-11-13T07:28:25,42.805,6.029,CST-1368DR,11147,15213,15439,0.046,551
2017-11-13T07:31:30,42.805,6.029,CST-1368DR,11147,15214,15439,0.046,551
2017-11-13T07:34:35,42.805,6.029,CST-1368DR,11147,15208,15433,0.047,551
2017-11-13T07:37:40,42.805,6.029,CST-1368DR,11147,15213,15438,0.046,551
2017-11-13T07:40:45,42.805,6.029,CST-1368DR,11147,15213,15438,0.046,551
2017-11-13T07:43:49,42.805,6.029,CST-1368DR,11147,15213,15439,0.046,551
2017-11-13T07:46:54,42.805,6.029,CST-1368DR,11147,15215,15440,0.045,551
2017-11-13T07:49:59,42.805,6.029,CST-1368DR,11147,15210,15435,0.047,550
2017-11-13T07:53:04,42.805,6.029,CST-1368DR,11147,15212,15438,0.046,551
2017-11-13T07:56:09,42.805,6.029,CST-1368DR,11147,15210,15436,0.046,551
2017-11-13T07:59:14,42.805,6.029,CST-1368DR,11147,15214,15440,0.045,551
2017-11-13T08:02:19,42.805,6.029,CST-1368DR,11147,15216,15442,0.045,551
2017-11-13T08:05:24,42.805,6.029,CST-1368DR,11147,15215,15441,0.045,551
2017-11-13T08:08:29,42.805,6.029,CST-1368DR,11147,15214,15440,0.045,551
2017-11-13T08:11:33,42.805,6.029,CST-1368DR,11147,15214,15440,0.045,551
2017-11-13T08:14:38,42.805,6.029,CST-1368DR,11147,15215,15441,0.045,551
2017-11-13T08:17:43,42.805,6.029,CST-1368DR,11147,15214,15440,0.045,551
2017-11-13T08:20:48,42.805,6.029,CST-1368DR,11147,15194,15420,0.051,551
2017-11-13T08:23:53,42.805,6.029,CST-1368DR,11147,15214,15439,0.046,550
2017-11-13T08:26:58,42.805,6.029,CST-1368DR,11147,15216,15442,0.045,551
2017-11-13T08:30:03,42.805,6.029,CST-1368DR,11147,15215,15441,0.045,551
2017-11-13T08:33:08,42.805,6.029,CST-1368DR,11147,15213,15439,0.046,551
2017-11-13T08:36:13,42.805,6.029,CST-1368DR,11147,15215,15440,0.045,550
2017-11-13T08:39:18,42.805,6.029,CST-1368DR,11147,15214,15440,0.045,551
2017-11-13T08:42:22,42.805,6.029,CST-1368DR,11147,15215,15441,0.045,551
2017-11-13T08:45:27,42.805,6.029,CST-1368DR,11147,15216,15441,0.045,551
2017-11-13T08:48:32,42.805,6.029,CST-1368DR,11147,15214,15439,0.046,551
2017-11-13T08:51:37,42.805,6.029,CST-1368DR,11147,15208,15433,0.047,551
2017-11-13T08:54:42,42.805,6.029,CST-1368DR,11147,15216,15441,0.045,551
2017-11-13T08:57:47,42.805,6.029,CST-1368DR,11147,15215,15441,0.045,551
2017-11-13T09:00:52,42.805,6.029,CST-1368DR,11147,15216,15441,0.045,551
2017-11-13T09:03:57,42.805,6.029,CST-1368DR,11147,15217,15443,0.045,551
2017-11-13T09:07:02,42.805,6.029,CST-1368DR,11147,15212,15438,0.046,551
2017-11-13T09:10:06,42.805,6.029,CST-1368DR,11147,15215,15441,0.045,550
2017-11-13T09:13:11,42.805,6.029,CST-1368DR,11147,15213,15438,0.046,551
2017-11-13T09:16:16,42.805,6.029,CST-1368DR,11147,15216,15442,0.045,550
2017-11-13T09:19:21,42.805,6.029,CST-1368DR,11147,15218,15444,0.044,550
2017-11-13T09:22:26,42.805,6.029,CST-1368DR,11147,15216,15442,0.045,551
2017-11-13T09:25:31,42.805,6.029,CST-1368DR,11147,15218,15444,0.044,551
2017-11-13T09:28:36,42.805,6.029,CST-1368DR,11147,15217,15442,0.045,551
2017-11-13T09:31:41,42.805,6.029,CST-1368DR,11147,15216,15442,0.045,550
2017-11-13T09:34:46,42.805,6.029,CST-1368DR,11147,15216,15442,0.045,550
2017-11-13T09:37:50,42.805,6.029,CST-1368DR,11147,15217,15442,0.045,551
2017-11-13T09:40:55,42.805,6.029,CST-1368DR,11147,15217,15443,0.045,551
2017-11-13T09:44:00,42.805,6.029,CST-1368DR,11147,15215,15441,0.045,551
2017-11-13T09:47:05,42.805,6.029,CST-1368DR,11147,15214,15439,0.046,551
2017-11-13T09:50:10,42.805,6.029,CST-1368DR,11147,15214,15439,0.046,551
2017-11-13T09:53:15,42.805,6.029,CST-1368DR,11147,15215,15441,0.045,550
2017-11-13T09:56:20,42.805,6.029,CST-1368DR,11147,15216,15442,0.045,551
2017-11-13T09:59:25,42.805,6.029,CST-1368DR,11147,15216,15442,0.045,550
2017-11-13T10:02:30,42.805,6.029,CST-1368DR,11147,15215,15441,0.045,551
2017-11-13T10:05:34,42.805,6.029,CST-1368DR,11147,15214,15440,0.045,551
2017-11-13T10:08:39,42.805,6.029,CST-1368DR,11147,15212,15437,0.046,551
2017-11-13T10:11:44,42.805,6.029,CST-1368DR,11147,15213,15438,0.046,551
2017-11-13T10:14:49,42.805,6.029,CST-1368DR,11147,15210,15435,0.047,551
2017-11-13T10:17:54,42.805,6.029,CST-1368DR,11147,15217,15442,0.045,551
2017-11-13T10:20:59,42.805,6.029,CST-1368DR,11147,15216,15442,0.045,551
2017-11-13T10:24:04,42.805,6.029,CST-1368DR,11147,15217,15443,0.045,551
2017-11-13T10:27:09,42.805,6.029,CST-1368DR,11147,15217,15442,0.045,551
2017-11-13T10:30:14,42.805,6.029,CST-1368DR,11147,15210,15436,0.046,551
2017-11-13T10:33:18,42.805,6.029,CST-1368DR,11147,15215,15441,0.045,551
2017-11-13T10:36:23,42.805,6.029,CST-1368DR,11147,15212,15437,0.046,551
2017-11-13T10:39:28,42.805,6.029,CST-1368DR,11147,15213,15439,0.046,551
2017-11-13T10:42:33,42.805,6.029,CST-1368DR,11147,15212,15438,0.046,551
2017-11-13T10:45:38,42.805,6.029,CST-1368DR,11147,15214,15439,0.046,551
2017-11-13T10:48:43,42.805,6.029,CST-1368DR,11147,15216,15442,0.045,551
2017-11-13T10:51:48,42.805,6.029,CST-1368DR,11147,15216,15442,0.045,551
2017-11-13T10:54:53,42.805,6.029,CST-1368DR,11147,15216,15441,0.045,551
2017-11-13T10:57:58,42.805,6.029,CST-1368DR,11147,15215,15441,0.045,551
2017-11-13T11:01:03,42.805,6.029,CST-1368DR,11147,15215,15441,0.045,551
2017-11-13T11:04:07,42.805,6.029,CST-1368DR,11147,15212,15438,0.046,550
2017-11-13T11:07:12,42.805,6.029,CST-1368DR,11147,15214,15439,0.046,551
2017-11-13T11:10:17,42.805,6.029,CST-1368DR,11147,15215,15441,0.045,550
2017-11-13T11:13:22,42.805,6.029,CST-1368DR,11146,15210,15437,0.046,551
2017-11-13T11:16:27,42.805,6.029,CST-1368DR,11147,15211,15437,0.046,551
2017-11-13T11:19:32,42.805,6.029,CST-1368DR,11147,15213,15439,0.046,551
2017-11-13T11:22:37,42.805,6.029,CST-1368DR,11147,15216,15441,0.045,551
2017-11-13T11:25:42,42.805,6.029,CST-1368DR,11146,15214,15441,0.045,551
2017-11-13T11:28:47,42.805,6.029,CST-1368DR,11146,15216,15443,0.045,551
2017-11-13T11:31:51,42.805,6.029,CST-1368DR,11146,15218,15445,0.044,550
2017-11-13T11:34:56,42.805,6.029,CST-1368DR,11146,15209,15436,0.046,551
2017-11-13T11:38:01,42.805,6.029,CST-1368DR,11146,15216,15443,0.045,550
2017-11-13T11:41:06,42.805,6.029,CST-1368DR,11146,15215,15442,0.045,550
2017-11-13T11:44:11,42.805,6.029,CST-1368DR,11146,15215,15442,0.045,550
2017-11-13T11:47:16,42.805,6.029,CST-1368DR,11146,15212,15439,0.046,551
2017-11-13T11:50:21,42.805,6.029,CST-1368DR,11146,15217,15444,0.044,550
2017-11-13T11:53:26,42.805,6.029,CST-1368DR,11146,15216,15443,0.045,550
2017-11-13T11:56:31,42.805,6.029,CST-1368DR,11146,15214,15441,0.045,551
2017-11-13T11:59:35,42.805,6.029,CST-1368DR,11145,15203,15431,0.048,550
2017-11-13T12:02:40,42.805,6.029,CST-1368DR,11145,15214,15443,0.045,550
2017-11-13T12:05:45,42.805,6.029,CST-1368DR,11145,15190,15417,0.051,550
2017-11-13T12:08:50,42.805,6.029,CST-1368DR,11145,15206,15434,0.047,551
2017-11-13T12:11:55,42.805,6.029,CST-1368DR,11145,15194,15422,0.050,551
2017-11-13T12:15:00,42.805,6.029,CST-1368DR,11145,15198,15426,0.049,551
2017-11-13T12:18:05,42.805,6.029,CST-1368DR,11144,15208,15437,0.046,551
2017-11-13T12:21:10,42.805,6.029,CST-1368DR,11144,15208,15437,0.046,550
2017-11-13T12:24:15,42.805,6.029,CST-1368DR,11144,15203,15433,0.047,551
2017-11-13T12:27:19,42.805,6.029,CST-1368DR,11145,15206,15434,0.047,551
2017-11-13T12:30:24,42.805,6.029,CST-1368DR,11145,15199,15427,0.049,551
2017-11-13T12:33:29,42.805,6.029,CST-1368DR,11145,15200,15428,0.048,551
2017-11-13T12:36:34,42.805,6.029,CST-1368DR,11146,15213,15440,0.045,551
2017-11-13T12:39:39,42.805,6.029,CST-1368DR,11146,15211,15438,0.046,551
2017-11-13T12:42:44,42.805,6.029,CST-1368DR,11146,15213,15440,0.045,551
2017-11-13T12:45:49,42.805,6.029,CST-1368DR,11146,15212,15439,0.046,551
2017-11-13T12:48:54,42.805,6.029,CST-1368DR,11146,15213,15440,0.045,551
2017-11-13T12:51:59,42.805,6.029,CST-1368DR,11146,15212,15439,0.046,551
2017-11-13T12:55:04,42.805,6.029,CST-1368DR,11146,15214,15441,0.045,550
2017-11-13T12:58:08,42.805,6.029,CST-1368DR,11146,15201,15428,0.048,551
2017-11-13T13:01:13,42.805,6.029,CST-1368DR,11146,15212,15439,0.046,550
2017-11-13T13:04:18,42.805,6.029,CST-1368DR,11146,15198,15425,0.049,551
2017-11-13T13:07:23,42.805,6.029,CST-1368DR,11146,15209,15435,0.047,551
2017-11-13T13:10:28,42.805,6.029,CST-1368DR,11146,15213,15440,0.045,551
2017-11-13T13:13:33,42.805,6.029,CST-1368DR,11146,15199,15426,0.049,551
2017-11-13T13:16:38,42.805,6.029,CST-1368DR,11146,15208,15435,0.047,551
2017-11-13T13:19:43,42.805,6.029,CST-1368DR,11146,15206,15433,0.047,551
2017-11-13T13:22:48,42.805,6.029,CST-1368DR,11146,15205,15431,0.048,550
2017-11-13T13:25:52,42.805,6.029,CST-1368DR,11146,15209,15435,0.047,550
2017-11-13T13:28:57,42.805,6.029,CST-1368DR,11146,15198,15425,0.049,550
2017-11-13T13:32:02,42.805,6.029,CST-1368DR,11146,15204,15431,0.048,551
2017-11-13T13:35:07,42.805,6.029,CST-1368DR,11146,15209,15436,0.046,551
2017-11-13T13:38:12,42.805,6.029,CST-1368DR,11146,15194,15420,0.051,551
2017-11-13T13:41:17,42.805,6.029,CST-1368DR,11146,15206,15433,0.047,551
2017-11-13T13:44:22,42.805,6.029,CST-1368DR,11146,15206,15433,0.047,551
2017-11-13T13:47:27,42.805,6.029,CST-1368DR,11146,15210,15437,0.046,551
2017-11-13T13:50:32,42.805,6.029,CST-1368DR,11146,15206,15433,0.047,551
2017-11-13T13:53:36,42.805,6.029,CST-1368DR,11146,15212,15439,0.046,551
2017-11-13T13:56:41,42.805,6.029,CST-1368DR,11146,15214,15441,0.045,551
2017-11-13T13:59:46,42.805,6.029,CST-1368DR,11146,15199,15426,0.049,551
2017-11-13T14:02:51,42.805,6.029,CST-1368DR,11146,15211,15438,0.046,550
2017-11-13T14:05:56,42.805,6.029,CST-1368DR,11146,15214,15441,0.045,551
2017-11-13T14:09:01,42.805,6.029,CST-1368DR,11146,15209,15436,0.046,551
2017-11-13T14:12:06,42.805,6.029,CST-1368DR,11146,15209,15436,0.046,551
2017-11-13T14:15:11,42.805,6.029,CST-1368DR,11146,15210,15436,0.046,550
2017-11-13T14:18:16,42.805,6.029,CST-1368DR,11146,15214,15441,0.045,551
2017-11-13T14:21:20,42.805,6.029,CST-1368DR,11146,15212,15439,0.046,551
2017-11-13T14:24:25,42.805,6.029,CST-1368DR,11146,15212,15439,0.046,551
2017-11-13T14:27:30,42.805,6.029,CST-1368DR,11147,15207,15433,0.047,551
2017-11-13T14:30:35,42.805,6.029,CST-1368DR,11147,15212,15438,0.046,551
2017-11-13T14:33:40,42.805,6.029,CST-1368DR,11147,15209,15434,0.047,550
2017-11-13T14:36:45,42.805,6.029,CST-1368DR,11147,15211,15437,0.046,551
2017-11-13T14:39:50,42.805,6.029,CST-1368DR,11147,15211,15437,0.046,551
2017-11-13T14:42:55,42.805,6.029,CST-1368DR,11146,15207,15434,0.047,551
2017-11-13T14:46:00,42.805,6.029,CST-1368DR,11147,15212,15438,0.046,551
2017-11-13T14:49:05,42.805,6.029,CST-1368DR,11146,15216,15443,0.045,550
2017-11-13T14:52:09,42.805,6.029,CST-1368DR,11146,15210,15437,0.046,551
2017-11-13T14:55:14,42.805,6.029,CST-1368DR,11147,15210,15436,0.046,551
2017-11-13T14:58:19,42.805,6.029,CST-1368DR,11146,15215,15442,0.045,551
2017-11-13T15:01:24,42.805,6.029,CST-1368DR,11147,15215,15440,0.045,550
2017-11-13T15:04:29,42.805,6.029,CST-1368DR,11146,15214,15441,0.045,551
2017-11-13T15:07:34,42.805,6.029,CST-1368DR,11146,15213,15440,0.045,551
2017-11-13T15:10:39,42.805,6.029,CST-1368DR,11146,15214,15441,0.045,550
2017-11-13T15:13:44,42.805,6.029,CST-1368DR,11147,15214,15439,0.046,551
2017-11-13T15:16:49,42.805,6.029,CST-1368DR,11147,15213,15439,0.046,550
2017-11-13T15:19:53,42.805,6.029,CST-1368DR,11146,15212,15439,0.046,551
2017-11-13T15:22:58,42.805,6.029,CST-1368DR,11146,15215,15442,0.045,550
2017-11-13T15:26:03,42.805,6.029,CST-1368DR,11146,15212,15439,0.046,550
2017-11-13T15:29:08,42.805,6.029,CST-1368DR,11146,15216,15443,0.045,551
2017-11-13T15:32:13,42.805,6.029,CST-1368DR,11146,15213,15440,0.045,550
2017-11-13T15:35:18,42.805,6.029,CST-1368DR,11146,15216,15443,0.045,551
2017-11-13T15:38:23,42.805,6.029,CST-1368DR,11146,15212,15439,0.046,551
2017-11-13T15:41:28,42.805,6.029,CST-1368DR,11147,15213,15439,0.046,550
2017-11-13T15:44:33,42.805,6.029,CST-1368DR,11146,15214,15441,0.045,550
2017-11-13T15:47:37,42.805,6.029,CST-1368DR,11147,15209,15435,0.047,551
2017-11-13T15:50:42,42.805,6.029,CST-1368DR,11147,15212,15438,0.046,551
2017-11-13T15:53:47,42.805,6.029,CST-1368DR,11147,15213,15439,0.046,551
2017-11-13T15:56:52,42.805,6.029,CST-1368DR,11146,15215,15442,0.045,551
2017-11-13T15:59:57,42.805,6.029,CST-1368DR,11146,15214,15441,0.045,551
2017-11-13T16:03:02,42.805,6.029,CST-1368DR,11146,15214,15441,0.045,551
2017-11-13T16:06:07,42.805,6.029,CST-1368DR,11146,15213,15440,0.045,551
2017-11-13T16:09:12,42.805,6.029,CST-1368DR,11146,15213,15440,0.045,551
2017-11-13T16:12:17,42.805,6.029,CST-1368DR,11146,15212,15439,0.046,551
2017-11-13T16:15:21,42.805,6.029,CST-1368DR,11147,15214,15439,0.046,551
2017-11-13T16:18:26,42.805,6.029,CST-1368DR,11146,15209,15435,0.047,551
2017-11-13T16:21:31,42.805,6.029,CST-1368DR,11146,15215,15442,0.045,550
2017-11-13T16:24:36,42.805,6.029,CST-1368DR,11146,15215,15442,0.045,551
2017-11-13T16:27:41,42.805,6.029,CST-1368DR,11147,15214,15439,0.046,551
2017-11-13T16:30:46,42.805,6.029,CST-1368DR,11146,15210,15437,0.046,551
2017-11-13T16:33:51,42.805,6.029,CST-1368DR,11146,15212,15439,0.046,551
2017-11-13T16:36:56,42.805,6.029,CST-1368DR,11146,15215,15442,0.045,551
2017-11-13T16:40:01,42.805,6.029,CST-1368DR,11146,15210,15437,0.046,551